CAPE
5 4 3 2 2 2 2 2 3 1 1 1 2 1 0 0 0 0 0 0 0 0 0 0 0 0 0 0 0 0 0 0 0 0 0 0 0 0 0 0 0 0 0 975 1175
5 4 3 1 3 1 1 2 4 4 2 3 2 1 0 0 0 0 0 0 0 0 0 0 0 0 0 0 0 0 0 0 0 0 0 0 0 0 0 0 0 0 0 1189 1506
5 1 1 1 2 1 2 3 2 3 3 5 2 0 0 0 0 0 0 0 0 0 0 0 0 0 0 0 0 0 0 0 0 0 0 0 0 0 0 0 0 0 0 762 1523
1 1 1 1 1 2 3 2 2 2 3 3 2 0 0 0 0 0 0 0 0 0 0 0 0 0 0 0 0 0 0 0 0 0 0 0 0 0 0 0 0 0 0 160 1153
2 1 1 2 1 1 1 2 2 2 2 1 0 0 0 0 0 0 0 0 0 0 0 0 0 0 0 0 0 0 0 0 0 0 0 0 0 0 0 0 0 0 0 7 627
0 1 0 1 1 0 1 1 1 1 0 0 0 0 0 0 0 0 0 0 0 0 3 0 0 0 0 0 0 0 0 0 0 0 0 0 0 0 0 0 0 0 0 414 1113
0 1 1 0 1 0 0 1 1 0 0 0 0 0 0 0 0 0 0 0 0 0 0 0 0 0 0 0 0 0 0 0 0 0 0 0 0 0 0 0 0 0 0 0 961
0 1 0 0 0 0 0 1 0 0 0 0 0 0 0 0 0 0 0 0 0 0 0 0 0 0 0 0 0 0 0 0 0 0 0 0 0 0 0 0 0 0 0 0 0
0 1 0 0 0 0 0 0 0 0 0 0 0 0 0 0 0 0 0 0 0 0 0 0 0 0 2 0 0 0 0 0 0 0 0 0 0 0 0 0 0 0 0 0 31
0 0 1 0 0 0 0 0 0 0 0 0 0 0 0 0 0 0 0 0 0 0 1 0 0 4 17 28 12 35 9 0 0 0 0 0 0 0 0 0 0 0 0 0 0
0 0 0 0 0 0 0 0 0 0 0 0 0 0 0 0 0 0 0 0 0 1 9 6 7 6 49 27 35 11 19 13 18 0 0 0 0 0 0 0 0 0 0 0 0
0 0 0 0 0 0 0 0 0 0 0 0 0 0 0 0 2 6 0 0 5 9 10 13 8 0 1 1 7 12 21 49 25 14 0 0 0 0 0 0 0 0 0 0 0
0 0 0 0 0 0 0 0 0 0 0 0 0 0 0 1 4 10 0 11 9 12 16 16 18 1 0 0 0 20 13 47 65 10 0 2 0 0 0 0 0 0 0 0 0
0 0 0 0 0 0 0 0 0 0 6 0 9 2 3 4 15 2 12 6 7 17 21 11 22 4 5 0 4 25 8 2 3 0 0 0 0 0 0 0 0 0 0 0 0
0 0 0 0 0 0 0 0 0 0 21 0 5 0 1 0 3 2 3 7 14 10 20 18 12 6 16 25 0 3 0 0 0 0 0 0 0 0 0 0 0 0 0 0 0
0 0 0 0 0 0 0 0 0 2 0 0 0 0 6 16 5 3 5 7 20 15 28 5 15 13 14 10 0 0 2 0 0 0 0 0 0 0 0 0 0 0 0 0 0
0 0 0 0 0 0 0 0 4 0 0 0 0 0 15 2 8 8 10 11 2 13 10 10 10 22 17 3 16 0 1 3 1 2 0 0 0 0 0 0 0 0 0 0 3
0 0 0 0 0 0 0 0 0 0 0 0 0 3 11 7 3 7 17 13 1 10 0 12 29 15 19 7 17 30 8 14 22 12 0 0 0 0 0 0 0 0 0 0 222
0 0 0 0 0 0 0 0 0 0 0 0 0 3 18 11 6 14 17 5 2 16 0 24 25 1 52 35 22 26 3 0 4 13 38 15 0 0 0 0 0 0 0 1 649
0 0 0 0 0 0 0 0 0 0 0 0 0 4 14 22 11 12 3 14 3 5 4 25 7 39 32 40 47 13 31 1 13 0 26 6 0 0 0 0 0 0 0 54 924
0 0 0 0 0 0 0 0 0 0 0 0 0 5 30 17 29 13 5 3 16 8 21 19 22 37 21 22 36 7 5 3 7 0 5 3 1 0 0 0 0 0 0 213 1464
0 0 0 0 0 0 0 0 0 0 0 0 0 8 19 9 24 2 4 3 11 13 3 1 23 18 66 27 13 16 19 34 24 5 0 0 0 8 0 0 0 0 0 497 2176
0 0 0 0 0 0 0 0 0 0 0 0 0 3 3 17 4 1 2 2 9 7 3 11 8 12 29 38 3 11 38 32 34 6 19 1 0 33 0 2 0 0 0 1486 1804
0 0 0 0 0 0 0 0 0 0 0 0 0 3 13 12 0 2 5 2 7 12 10 7 3 18 26 47 30 0 7 35 39 46 10 1 0 159 130 42 0 0 235 1978 1610
0 0 0 0 0 0 0 0 0 0 0 0 0 0 5 1 2 0 0 1 1 4 17 6 1 10 25 20 9 1 1 5 37 40 19 0 0 35 35 178 24 0 2025 1788 1198
0 0 0 0 0 0 0 0 0 0 0 0 0 0 3 1 6 4 2 1 0 0 6 1 1 10 3 14 30 23 2 15 42 110 43 0 0 0 0 22 134 174 1699 1542 1046
0 0 0 0 0 0 0 0 0 4 0 0 0 0 6 3 9 11 0 1 0 8 2 13 1 1 0 0 29 11 49 78 74 61 4 0 0 0 0 53 940 1480 1499 1196 1066
CIN
-0 -0 -0 -0 -0 -0 -0 -0 -0 -0 -0 -2 -2 -2 -0 -0 -0 -0 -0 -0 -0 -0 -0 -0 -0 -0 -0 -0 -0 -0 -0 -0 -0 -0 -0 -0 -0 -0 -0 -0 -0 -0 -0 -14 -61
-0 -0 -0 -0 -0 -0 -0 -0 -0 -1 -1 -2 -0 -2 -0 -0 -0 -0 -0 -0 -0 -0 -0 -0 -0 -0 -0 -0 -0 -0 -0 -0 -0 -0 -0 -0 -0 -0 -0 -0 -0 -0 -0 -25 -65
-0 -0 -0 -0 -0 -0 -0 -0 -0 -0 -0 -1 -2 -0 -0 -0 -0 -0 -0 -0 -0 -0 -0 -0 -0 -0 -0 -0 -0 -0 -0 -0 -0 -0 -0 -0 -0 -0 -0 -0 -0 -0 -0 -58 -77
-0 -0 -0 -0 -0 -0 -0 -0 -0 -0 -0 -1 -2 -0 -0 -0 -0 -0 -0 -0 -0 -0 -0 -0 -0 -0 -0 -0 -0 -0 -0 -0 -0 -0 -0 -0 -0 -0 -0 -0 -0 -0 -0 -29 -33
-0 -0 -0 -0 -0 -0 -0 -0 -0 -0 -0 -0 -0 -0 -0 -0 -0 -0 -0 -0 -0 -0 -0 -0 -0 -0 -0 -0 -0 -0 -0 -0 -0 -0 -0 -0 -0 -0 -0 -0 -0 -0 -0 -8 -50
-0 -0 -0 -0 -0 -0 -0 -0 -0 -0 -0 -0 -0 -0 -0 -0 -0 -0 -0 -0 -0 -0 -1 -0 -0 -0 -0 -0 -0 -0 -0 -0 -1 -0 -0 -0 -0 -0 -0 -0 -0 -0 -0 -15 -11
-0 -0 -0 -0 -0 -0 -0 -0 -0 -0 -0 -0 -0 -0 -0 -0 -0 -0 -0 -0 -0 -0 -0 -1 -0 -0 -0 -0 -0 -0 -0 -0 -0 -0 -0 -0 -0 -0 -0 -0 -0 -0 -0 -0 -5
-0 -0 -0 -0 -0 -0 -0 -0 -0 -0 -0 -0 -0 -0 -0 -0 -0 -0 -0 -0 -0 -0 -0 -0 -0 -0 -0 -0 -0 -0 -0 -0 -0 -0 -0 -0 -0 -0 -0 -0 -0 -0 -0 -0 -0
-0 -0 -0 -0 -0 -0 -0 -0 -0 -0 -0 -0 -0 -0 -0 -0 -0 -0 -0 -0 -0 -0 -0 -0 -0 -0 -4 -0 -0 -2 -0 -0 -0 -0 -0 -0 -0 -0 -0 -0 -0 -0 -0 -0 -48
-0 -0 -0 -0 -0 -0 -0 -0 -0 -0 -0 -0 -0 -0 -0 -0 -0 -0 -0 -0 -0 -0 -1 -0 -0 -6 -5 -6 -7 -12 -12 -0 -2 -0 -0 -0 -0 -0 -0 -0 -0 -0 -0 -0 -0
-0 -0 -0 -0 -0 -0 -0 -0 -0 -0 -0 -0 -0 -0 -0 -0 -0 -1 -0 -0 -0 -3 -3 -4 -5 -8 -8 -9 -9 -36 -10 -16 -5 -0 -0 -0 -0 -0 -0 -0 -0 -0 -0 -0 -0
-0 -0 -0 -0 -0 -0 -0 -0 -0 -0 -0 -0 -0 -0 -0 -0 -2 -3 -0 -0 -2 -4 -3 -7 -5 -0 -16 -8 -6 -4 -21 -8 -10 -9 -1 -0 -0 -0 -0 -0 -0 -0 -0 -0 -0
-0 -0 -0 -0 -0 -0 -0 -0 -0 -0 -0 -0 -0 -0 -0 -0 -4 -4 -0 -3 -3 -3 -4 -2 -4 -1 -0 -0 -1 -4 -21 -10 -9 -8 -0 -3 -0 -0 -0 -0 -0 -0 -0 -0 -0
-0 -0 -0 -0 -0 -0 -0 -0 -0 -0 -1 -0 -3 -1 -8 -8 -1 -4 -1 -2 -3 -2 -4 -4 -5 -17 -1 -0 -4 -8 -10 -4 -5 -0 -0 -0 -0 -0 -0 -0 -0 -0 -0 -0 -0
-0 -0 -0 -0 -0 -0 -0 -0 -0 -0 -1 -0 -1 -0 -0 -2 -10 -1 -4 -2 -1 -3 -4 -6 -4 -3 -3 -4 -0 -4 -0 -2 -0 -0 -4 -0 -0 -0 -0 -0 -0 -0 -0 -0 -0
-0 -0 -0 -0 -0 -0 -0 -0 -0 -8 -0 -0 -0 -0 -5 -6 -4 -1 -3 -9 -2 -3 -5 -2 -5 -5 -4 -18 -1 -0 -2 -0 -0 -0 -0 -0 -0 -0 -0 -0 -0 -0 -0 -0 -0
-0 -0 -0 -0 -0 -0 -0 -0 -2 -0 -0 -0 -0 -0 -1 -6 -4 -7 -3 -2 -2 -2 -5 -5 -2 -6 -5 -2 -5 -0 -4 -4 -2 -6 -0 -0 -0 -0 -0 -0 -0 -0 -0 -0 -54
-0 -0 -0 -0 -0 -0 -0 -0 -0 -0 -0 -0 -0 -3 -3 -9 -2 -6 -2 -1 -4 -4 -0 -4 -3 -4 -15 -8 -4 -7 -7 -11 -9 -7 -0 -0 -0 -0 -0 -0 -0 -0 -0 -0 -7
-0 -0 -0 -0 -0 -0 -0 -0 -0 -0 -0 -0 -0 -1 -2 -5 -1 -2 -3 -2 -10 -2 -2 -4 -3 -3 -4 -13 -7 -7 -5 -13 -3 -22 -10 -4 -0 -0 -0 -0 -0 -0 -0 -4 -3
-0 -0 -0 -0 -0 -0 -0 -0 -0 -0 -0 -0 -1 -1 -2 -2 -1 -2 -1 -2 -4 -4 -14 -3 -8 -8 -6 -6 -6 -9 -17 -1 -3 -0 -7 -13 -0 -0 -0 -0 -0 -0 -0 -11 -4
-0 -0 -0 -0 -0 -0 -0 -0 -0 -0 -0 -0 -0 -2 -2 -1 -1 -0 -2 -1 -0 -3 -6 -7 -6 -3 -4 -4 -6 -4 -3 -1 -6 -0 -16 -16 -9 -0 -0 -0 -0 -0 -0 -11 -6
-0 -0 -0 -0 -0 -0 -0 -0 -0 -0 -0 -0 -0 -3 -2 -2 -0 -0 -0 -0 -0 -0 -0 -3 -3 -2 -7 -14 -5 -17 -4 -5 -7 -5 -0 -0 -1 -12 -0 -0 -0 -0 -0 -2 -3
-0 -0 -0 -0 -0 -0 -0 -0 -0 -0 -0 -0 -0 -3 -4 -2 -2 -0 -0 -0 -0 -0 -0 -1 -1 -1 -2 -8 -3 -2 -14 -7 -19 -8 -10 -3 -0 -19 -0 -3 -0 -0 -0 -3 -2
-0 -0 -0 -0 -0 -0 -0 -0 -0 -0 -0 -0 -0 -3 -4 -2 -3 -0 -0 -0 -0 -0 -0 -0 -1 -1 -2 -4 -9 -0 -4 -4 -5 -7 -6 -2 -0 -21 -82 -9 -0 -0 -1 -4 -24
-0 -0 -0 -0 -0 -0 -0 -0 -0 -0 -0 -0 -0 -0 -2 -4 -2 -5 -0 -0 -0 -0 -0 -0 -0 -1 -2 -4 -6 -0 -0 -4 -7 -7 -8 -0 -0 -68 -200 -53 -5 -0 -11 -4 -61
-0 -0 -0 -0 -0 -0 -0 -0 -0 -0 -0 -0 -0 -0 -2 -4 -1 -0 -1 -0 -0 -0 -0 -0 -0 -1 -2 -2 -4 -4 -0 -14 -4 -5 -8 -0 -0 -0 -0 -43 -39 -66 -13 -21 -48
-0 -0 -0 -0 -0 -0 -0 -0 -0 -1 -0 -0 -0 -0 -3 -2 -1 -1 -0 -0 -0 -1 -1 -0 -0 -0 -0 -0 -1 -4 -10 -4 -6 -6 -4 -0 -0 -0 -0 -30 -4 -5 -52 -69 -18
Wind_Speed
27 26 25 25 24 23 22 22 22 21 21 21 21 20 23 23 25 21 20 20 22 24 25 24 23 20 25 33 34 33 48 54 51 48 46 38 35 36 37 39 35 19 25 8 8
27 25 25 24 23 22 22 22 21 20 19 19 19 20 21 22 22 17 18 20 20 21 23 22 20 18 23 28 35 39 47 53 46 43 46 46 38 33 37 37 38 27 14 10 10
25 25 24 24 23 22 22 22 22 20 19 18 18 18 18 21 17 15 17 18 20 19 19 22 23 23 24 27 31 38 52 44 48 45 42 42 44 35 40 39 36 32 22 15 15
24 24 23 23 23 22 22 22 22 20 19 18 17 17 17 15 17 17 17 19 21 20 15 18 21 24 24 28 30 41 47 46 48 43 42 41 39 38 40 41 31 36 30 19 19
23 23 22 22 23 22 22 22 22 21 18 17 16 15 15 13 18 17 16 14 21 18 15 17 16 22 30 29 30 38 45 45 45 44 40 41 42 42 38 31 21 18 24 20 20
23 22 22 21 21 22 21 21 21 20 17 16 16 15 15 15 19 18 18 20 20 20 17 19 18 21 31 32 32 34 40 42 44 46 43 41 44 42 41 34 28 23 25 24 22
24 22 21 20 20 21 21 22 21 19 18 17 15 14 15 20 18 18 18 20 20 19 20 16 18 19 21 30 32 32 40 40 51 45 50 42 47 51 43 36 36 29 28 27 25
25 22 20 20 20 20 21 22 19 18 18 17 14 13 17 19 21 17 20 19 18 17 13 20 17 22 25 27 28 30 33 45 47 51 46 45 57 49 44 41 39 34 27 26 25
28 24 20 19 19 19 19 20 19 16 16 14 15 13 17 18 19 21 18 21 20 16 11 16 17 18 20 23 30 28 37 41 48 47 50 50 53 44 41 43 38 35 33 29 26
30 25 20 19 18 18 18 18 17 16 15 11 11 13 14 21 26 21 15 17 16 16 12 15 19 21 22 25 33 28 32 36 43 45 45 55 50 40 41 42 44 40 37 33 28
30 24 20 19 18 18 20 21 25 20 13 18 17 16 16 24 16 18 16 14 13 10 10 9 5 26 24 29 38 29 30 30 33 36 43 49 50 47 34 41 39 41 39 36 31
31 23 20 19 18 18 18 28 26 16 20 12 14 15 14 20 21 16 16 12 12 10 9 6 1 29 25 24 29 31 30 33 31 28 35 41 48 49 44 40 39 40 38 37 29
30 22 21 20 18 19 22 27 20 17 17 15 16 17 17 15 18 15 17 10 9 7 6 3 4 12 24 32 28 29 34 34 34 30 39 40 46 47 49 42 43 37 37 33 32
27 20 21 20 22 23 27 23 19 17 21 23 18 17 16 12 15 12 12 8 5 5 8 1 8 6 18 27 30 30 28 32 31 33 40 38 48 51 48 47 45 43 39 36 35
25 19 20 19 22 29 24 21 18 17 29 26 20 17 13 13 17 13 16 11 4 5 5 2 5 4 15 28 20 30 22 28 30 35 37 38 43 43 46 48 49 46 43 38 35
23 19 20 20 16 26 21 19 17 25 30 26 24 23 18 20 19 16 12 12 10 7 3 6 5 3 19 23 19 27 28 30 30 33 42 41 39 46 41 49 47 45 42 39 35
16 18 19 19 26 22 20 18 26 32 28 28 29 25 19 20 22 18 14 9 11 12 8 3 4 9 5 30 23 24 28 29 30 36 43 38 42 40 28 41 46 43 40 39 35
14 18 17 20 22 20 19 22 30 31 29 27 26 22 21 22 21 19 14 11 4 6 9 6 8 6 6 35 30 25 31 28 28 32 39 35 45 42 35 29 43 40 37 37 34
13 17 19 25 22 19 22 30 30 29 28 29 26 26 23 21 19 17 15 12 5 5 7 13 12 12 5 19 33 30 35 31 27 32 32 34 33 36 31 33 39 41 37 38 35
27 19 23 24 21 20 27 28 29 25 26 26 28 25 26 20 20 26 20 18 13 6 3 7 11 7 9 3 30 33 26 31 28 30 36 36 41 36 37 36 35 42 38 37 34
24 22 26 25 20 25 30 27 26 23 25 26 25 24 23 22 19 20 18 16 11 11 3 3 5 8 11 13 28 24 34 33 34 34 33 38 39 33 31 38 37 41 37 37 34
27 26 28 26 25 29 29 28 23 23 22 22 19 19 24 22 17 17 17 16 16 13 6 3 11 4 13 13 21 28 27 33 36 38 38 39 40 24 36 31 37 43 36 35 36
34 26 23 30 35 34 30 27 22 24 25 22 20 19 17 20 21 14 16 15 14 11 5 7 7 9 16 15 11 16 24 32 39 41 43 41 43 28 31 32 37 45 35 34 38
31 31 30 25 28 35 33 27 27 23 24 21 20 17 18 22 18 13 14 14 3 4 9 6 12 17 17 13 8 14 23 19 31 46 47 47 43 27 21 29 35 47 35 34 35
31 30 29 30 34 31 25 24 28 29 24 21 21 22 26 23 19 18 19 5 2 8 12 13 9 11 17 19 12 10 14 27 27 46 54 52 46 36 28 27 31 44 35 34 35
31 30 31 27 28 31 28 28 26 27 26 21 20 20 21 21 17 18 15 11 6 14 14 12 7 4 13 16 19 8 10 18 29 51 53 56 45 33 36 36 37 38 38 36 37
30 27 26 28 31 31 29 27 25 24 22 19 20 20 20 23 12 8 11 7 7 9 9 8 4 4 4 2 7 7 16 22 29 54 56 59 49 37 43 38 32 33 38 37 36
Wind_Direction
31 31 31 29 28 27 24 21 18 16 13 10 8 6 358 351 342 339 332 334 321 313 302 306 302 293 271 260 255 256 252 248 249 249 250 253 249 250 251 249 247 255 258 271 252
33 34 32 30 30 29 25 22 19 17 14 10 7 3 0 354 348 344 342 332 331 328 314 313 312 304 281 269 254 250 250 249 253 256 253 250 253 250 246 244 245 251 251 265 252
35 34 33 31 30 28 25 22 19 16 13 10 6 2 360 352 352 350 348 340 337 335 325 315 305 297 289 272 259 251 250 255 252 254 258 252 247 251 245 243 243 244 248 250 248
35 34 34 31 29 27 25 22 18 15 13 11 9 8 6 8 4 352 348 338 333 331 337 326 310 294 287 278 266 258 254 254 254 255 257 252 248 246 244 244 250 244 252 237 242
34 33 32 30 27 25 23 21 17 16 16 20 22 24 23 26 1 8 360 350 325 329 337 328 328 303 280 280 273 262 257 253 254 252 256 247 247 247 243 244 254 242 242 237 240
30 30 29 28 25 23 22 20 18 20 27 32 36 44 39 26 6 8 0 342 320 319 328 323 323 319 286 277 273 272 263 256 252 248 250 248 246 245 243 239 244 245 244 245 240
26 26 25 25 23 22 21 21 21 29 37 42 47 49 40 11 10 6 358 344 335 325 319 328 323 314 308 281 276 276 266 260 246 247 244 247 246 239 239 243 241 245 243 241 241
24 22 23 23 22 22 22 22 26 39 44 48 55 48 33 15 359 9 359 351 347 336 326 324 324 308 296 287 283 279 273 258 248 241 243 242 239 240 240 238 237 236 238 238 243
21 21 22 23 23 23 24 26 36 48 47 62 52 51 33 19 14 358 5 351 347 353 348 335 319 308 297 288 278 272 269 259 248 239 238 237 238 243 237 235 235 231 236 236 240
19 21 24 24 24 24 24 33 41 51 55 61 51 44 38 11 353 356 15 7 2 5 3 333 312 295 287 278 263 275 269 261 245 238 234 233 237 241 238 231 233 235 233 234 235
18 21 25 26 26 29 28 38 26 31 47 35 38 34 27 7 22 19 21 23 23 34 13 26 1 282 282 273 257 280 274 258 253 240 232 234 234 234 237 232 231 230 231 231 231
17 22 26 27 30 33 37 28 27 31 25 59 47 32 31 19 11 21 22 29 26 19 36 51 90 261 282 275 266 266 269 257 257 247 236 236 233 233 233 234 231 230 229 228 225
17 24 28 29 36 37 35 26 31 41 34 57 38 35 31 29 15 20 16 24 22 19 32 34 151 355 288 258 270 264 257 253 251 253 241 237 235 231 230 232 231 229 227 226 225
16 25 29 32 34 31 28 27 37 50 32 35 38 41 36 28 31 25 16 25 18 18 15 33 194 183 309 265 260 261 262 259 259 246 233 234 232 229 227 228 227 225 225 223 223
14 25 30 40 28 26 24 31 45 57 23 23 31 33 28 23 8 21 17 28 3 7 8 43 72 85 312 263 279 255 279 261 255 244 241 235 231 231 224 225 224 223 222 223 221
12 28 33 37 38 27 31 37 52 28 21 22 26 10 15 22 20 14 16 17 9 353 273 241 198 16 299 289 289 263 262 255 253 244 234 231 228 227 221 222 222 221 219 219 219
355 30 36 37 24 28 33 40 23 23 16 19 9 12 18 18 14 17 12 357 6 11 7 22 201 199 286 266 273 263 252 247 243 235 231 231 229 228 225 224 220 217 215 215 215
344 33 41 36 27 28 32 23 20 18 18 13 13 15 21 22 18 9 360 337 324 11 360 2 21 173 160 251 253 262 243 241 245 234 232 234 226 227 235 236 220 218 212 213 209
3 41 40 24 27 34 27 21 19 15 13 11 14 19 20 18 20 15 358 344 7 46 48 21 23 36 111 273 247 252 239 247 264 252 241 233 234 231 235 229 216 215 209 211 208
20 32 29 24 30 32 22 21 19 21 15 17 14 19 10 11 15 11 16 20 23 72 88 38 19 77 102 290 250 245 258 247 250 242 234 234 224 228 224 225 222 214 207 208 205
22 23 23 23 31 25 19 18 17 22 21 21 13 10 11 14 11 6 17 8 22 15 65 90 43 62 116 147 246 250 247 247 248 244 241 233 230 231 231 225 221 215 208 205 201
16 14 22 22 22 19 17 15 20 21 21 15 18 13 13 7 359 4 11 19 13 20 54 83 12 39 179 167 185 244 256 249 242 239 243 241 234 250 231 228 224 216 207 201 201
7 8 23 23 13 15 15 13 19 15 16 14 16 14 11 7 7 13 10 21 21 24 90 73 121 172 188 172 159 181 188 221 247 244 239 238 228 242 229 232 221 214 203 194 202
11 6 13 20 17 9 10 17 14 21 14 22 8 13 10 6 9 4 360 18 61 136 166 107 186 197 205 239 344 187 209 202 214 240 233 230 225 244 244 228 221 214 201 196 200
9 6 8 5 6 7 11 11 10 10 17 14 20 15 10 3 7 25 7 3 193 169 145 153 170 196 223 223 214 224 204 204 205 237 229 223 226 238 248 250 228 215 196 193 198
4 2 1 1 7 6 13 9 9 8 7 8 10 8 7 5 6 305 7 248 145 93 134 142 165 181 233 225 228 204 199 209 202 225 222 218 224 242 247 250 235 232 195 196 195
2 1 357 359 359 2 7 6 0 2 15 15 5 2 7 7 319 307 39 181 116 98 107 128 104 110 33 156 169 183 185 183 181 210 213 212 215 232 236 239 233 191 195 194 192